QPF
0.01 0.01 0.02 0.01 0.01 0.00 0.00 0.00 0.00 0.00 0.00 0.00 0.01 0.01 0.01 0.01 0.00 0.01 0.03 0.03 0.02 0.02 0.03 0.05 0.06 0.05 0.04 0.05 0.05 0.04 0.03 0.03 0.04 0.05 0.04 0.04 0.08 0.08 0.07 0.09 0.08 0.07 0.08 0.08 0.08 0.07 0.06 0.07 0.08
0.00 0.01 0.02 0.01 0.00 0.00 0.00 0.00 0.00 0.00 0.00 0.00 0.00 0.00 0.00 0.01 0.01 0.02 0.03 0.03 0.03 0.02 0.02 0.04 0.05 0.03 0.03 0.04 0.05 0.04 0.04 0.04 0.04 0.05 0.05 0.04 0.05 0.09 0.08 0.08 0.09 0.09 0.08 0.08 0.08 0.06 0.06 0.06 0.06
0.01 0.02 0.01 0.00 0.00 0.00 0.00 0.00 0.00 0.00 0.00 0.00 0.00 0.00 0.01 0.01 0.02 0.02 0.03 0.03 0.03 0.03 0.02 0.02 0.04 0.04 0.04 0.04 0.06 0.07 0.06 0.05 0.04 0.04 0.06 0.05 0.05 0.07 0.08 0.09 0.10 0.13 0.11 0.07 0.06 0.05 0.06 0.05 0.04
0.01 0.01 0.01 0.00 0.00 0.00 0.00 0.00 0.00 0.00 0.00 0.00 0.00 0.00 0.00 0.01 0.01 0.03 0.03 0.02 0.02 0.02 0.03 0.03 0.04 0.04 0.03 0.04 0.09 0.07 0.05 0.04 0.03 0.03 0.05 0.06 0.09 0.08 0.07 0.07 0.08 0.11 0.11 0.07 0.05 0.05 0.06 0.07 0.06
0.01 0.00 0.00 0.00 0.00 0.00 0.00 0.00 0.00 0.00 0.00 0.00 0.00 0.00 0.00 0.00 0.01 0.02 0.02 0.02 0.02 0.03 0.03 0.03 0.04 0.04 0.04 0.05 0.12 0.09 0.06 0.06 0.04 0.04 0.05 0.06 0.08 0.09 0.08 0.07 0.07 0.07 0.09 0.10 0.08 0.04 0.05 0.06 0.07
0.01 0.00 0.00 0.00 0.00 0.00 0.00 0.00 0.00 0.00 0.00 0.00 0.00 0.00 0.00 0.00 0.01 0.01 0.03 0.03 0.03 0.03 0.03 0.03 0.03 0.04 0.04 0.04 0.09 0.15 0.12 0.08 0.06 0.06 0.06 0.06 0.08 0.10 0.06 0.05 0.06 0.06 0.08 0.11 0.09 0.06 0.05 0.06 0.06
0.00 0.00 0.00 0.00 0.00 0.00 0.00 0.00 0.00 0.00 0.00 0.00 0.00 0.00 0.00 0.00 0.00 0.01 0.03 0.04 0.04 0.04 0.03 0.04 0.02 0.02 0.03 0.04 0.07 0.09 0.10 0.08 0.08 0.07 0.05 0.05 0.07 0.07 0.05 0.04 0.06 0.07 0.09 0.11 0.08 0.07 0.06 0.05 0.05
0.00 0.00 0.00 0.00 0.00 0.00 0.00 0.00 0.01 0.01 0.00 0.00 0.00 0.00 0.00 0.00 0.01 0.01 0.01 0.01 0.01 0.02 0.02 0.01 0.01 0.00 0.01 0.02 0.04 0.05 0.05 0.05 0.05 0.04 0.05 0.04 0.04 0.03 0.04 0.05 0.07 0.08 0.12 0.13 0.08 0.08 0.06 0.05 0.05
0.00 0.00 0.00 0.00 0.00 0.00 0.00 0.01 0.01 0.01 0.01 0.00 0.00 0.00 0.00 0.00 0.00 0.00 0.00 0.00 0.01 0.00 0.01 0.00 0.00 0.00 0.00 0.00 0.02 0.03 0.02 0.03 0.03 0.03 0.02 0.03 0.03 0.02 0.02 0.03 0.04 0.05 0.12 0.15 0.10 0.06 0.05 0.04 0.04
0.00 0.00 0.00 0.00 0.00 0.00 0.01 0.00 0.00 0.01 0.00 0.00 0.00 0.00 0.00 0.00 0.00 0.00 0.00 0.00 0.00 0.00 0.00 0.00 0.00 0.00 0.00 0.00 0.00 0.00 0.01 0.01 0.01 0.01 0.01 0.01 0.02 0.03 0.02 0.03 0.04 0.04 0.07 0.13 0.11 0.06 0.05 0.03 0.03
0.00 0.00 0.00 0.00 0.01 0.00 0.01 0.00 0.00 0.00 0.00 0.00 0.00 0.00 0.00 0.00 0.01 0.01 0.01 0.00 0.00 0.01 0.01 0.00 0.00 0.00 0.00 0.00 0.00 0.00 0.00 0.01 0.00 0.00 0.00 0.01 0.01 0.02 0.02 0.02 0.03 0.03 0.05 0.08 0.08 0.05 0.04 0.03 0.02
0.00 0.00 0.00 0.00 0.00 0.00 0.00 0.00 0.00 0.00 0.00 0.00 0.00 0.00 0.00 0.00 0.00 0.00 0.00 0.00 0.00 0.01 0.01 0.01 0.00 0.00 0.00 0.00 0.00 0.01 0.01 0.02 0.01 0.00 0.00 0.01 0.01 0.02 0.02 0.02 0.01 0.01 0.02 0.03 0.03 0.04 0.04 0.03 0.02
0.00 0.01 0.00 0.00 0.00 0.00 0.00 0.00 0.00 0.00 0.00 0.00 0.00 0.00 0.00 0.00 0.00 0.00 0.00 0.00 0.01 0.01 0.01 0.01 0.01 0.00 0.00 0.00 0.01 0.01 0.01 0.01 0.02 0.01 0.01 0.01 0.01 0.01 0.02 0.02 0.01 0.01 0.01 0.01 0.01 0.01 0.01 0.02 0.02
0.00 0.00 0.01 0.01 0.01 0.00 0.00 0.00 0.00 0.00 0.00 0.00 0.00 0.00 0.00 0.00 0.00 0.00 0.00 0.00 0.00 0.00 0.00 0.01 0.00 0.00 0.00 0.00 0.00 0.01 0.01 0.01 0.02 0.01 0.01 0.02 0.01 0.01 0.01 0.01 0.01 0.01 0.01 0.01 0.01 0.00 0.00 0.01 0.02
0.00 0.00 0.01 0.01 0.01 0.01 0.00 0.00 0.00 0.00 0.00 0.00 0.00 0.00 0.00 0.00 0.00 0.00 0.00 0.00 0.00 0.00 0.00 0.00 0.00 0.00 0.00 0.00 0.00 0.00 0.00 0.01 0.02 0.01 0.01 0.01 0.01 0.01 0.01 0.01 0.01 0.01 0.01 0.02 0.01 0.01 0.01 0.01 0.01
0.00 0.00 0.00 0.01 0.01 0.01 0.01 0.01 0.00 0.00 0.00 0.00 0.00 0.00 0.00 0.00 0.00 0.00 0.00 0.00 0.00 0.00 0.00 0.01 0.00 0.01 0.00 0.00 0.00 0.00 0.01 0.01 0.01 0.02 0.01 0.01 0.01 0.01 0.01 0.01 0.01 0.02 0.02 0.02 0.03 0.02 0.01 0.01 0.01
0.00 0.00 0.00 0.01 0.01 0.01 0.01 0.01 0.01 0.01 0.00 0.00 0.00 0.00 0.01 0.00 0.00 0.00 0.00 0.00 0.00 0.00 0.00 0.00 0.00 0.01 0.01 0.00 0.00 0.00 0.00 0.00 0.01 0.01 0.01 0.01 0.01 0.01 0.01 0.01 0.01 0.01 0.02 0.03 0.04 0.03 0.03 0.02 0.02
0.00 0.00 0.00 0.01 0.01 0.01 0.01 0.00 0.01 0.01 0.00 0.00 0.00 0.00 0.00 0.00 0.00 0.01 0.00 0.00 0.00 0.00 0.00 0.00 0.01 0.01 0.01 0.00 0.00 0.00 0.00 0.00 0.01 0.01 0.01 0.01 0.01 0.01 0.02 0.02 0.01 0.01 0.02 0.02 0.02 0.03 0.05 0.04 0.03
0.00 0.00 0.00 0.01 0.01 0.01 0.01 0.01 0.01 0.01 0.00 0.01 0.00 0.00 0.01 0.00 0.01 0.01 0.01 0.00 0.00 0.00 0.00 0.01 0.01 0.01 0.01 0.00 0.00 0.00 0.00 0.00 0.01 0.02 0.02 0.02 0.02 0.02 0.03 0.04 0.03 0.03 0.02 0.01 0.01 0.02 0.04 0.05 0.05
0.00 0.00 0.00 0.00 0.01 0.01 0.01 0.01 0.01 0.01 0.01 0.01 0.01 0.00 0.01 0.01 0.01 0.01 0.00 0.00 0.00 0.00 0.00 0.01 0.01 0.01 0.00 0.00 0.00 0.00 0.01 0.01 0.02 0.04 0.03 0.02 0.02 0.02 0.03 0.03 0.03 0.03 0.02 0.01 0.01 0.01 0.02 0.04 0.04
0.00 0.00 0.00 0.00 0.01 0.01 0.01 0.01 0.01 0.01 0.01 0.00 0.00 0.00 0.00 0.01 0.01 0.00 0.00 0.00 0.01 0.01 0.01 0.01 0.01 0.01 0.01 0.00 0.01 0.01 0.01 0.01 0.01 0.02 0.01 0.01 0.01 0.03 0.05 0.03 0.03 0.03 0.02 0.01 0.01 0.01 0.02 0.02 0.02
0.00 0.00 0.00 0.00 0.00 0.01 0.01 0.01 0.01 0.00 0.00 0.00 0.00 0.00 0.00 0.01 0.01 0.01 0.01 0.00 0.01 0.01 0.01 0.01 0.01 0.01 0.01 0.00 0.01 0.01 0.02 0.02 0.02 0.01 0.01 0.01 0.02 0.03 0.04 0.04 0.03 0.03 0.03 0.01 0.00 0.01 0.02 0.01 0.02
0.00 0.00 0.00 0.00 0.00 0.00 0.00 0.00 0.00 0.00 0.01 0.00 0.00 0.00 0.01 0.01 0.01 0.01 0.01 0.01 0.01 0.01 0.01 0.01 0.01 0.01 0.00 0.01 0.01 0.02 0.02 0.02 0.01 0.01 0.01 0.02 0.02 0.03 0.03 0.03 0.03 0.03 0.02 0.01 0.00 0.01 0.00 0.01 0.01
0.00 0.00 0.00 0.00 0.00 0.01 0.00 0.00 0.00 0.00 0.00 0.01 0.00 0.00 0.01 0.01 0.02 0.02 0.02 0.02 0.01 0.01 0.01 0.01 0.01 0.00 0.01 0.00 0.01 0.01 0.01 0.00 0.00 0.01 0.01 0.01 0.02 0.02 0.03 0.02 0.02 0.02 0.01 0.01 0.01 0.01 0.01 0.02 0.01
0.00 0.00 0.00 0.00 0.00 0.00 0.00 0.00 0.00 0.00 0.00 0.00 0.01 0.01 0.02 0.02 0.02 0.02 0.02 0.02 0.02 0.02 0.02 0.02 0.02 0.02 0.01 0.01 0.01 0.01 0.01 0.01 0.02 0.02 0.01 0.01 0.01 0.01 0.02 0.01 0.01 0.01 0.01 0.01 0.01 0.01 0.02 0.03 0.02
0.00 0.00 0.00 0.01 0.00 0.00 0.00 0.01 0.01 0.01 0.01 0.01 0.01 0.01 0.02 0.02 0.02 0.02 0.02 0.02 0.02 0.03 0.03 0.03 0.02 0.02 0.01 0.01 0.01 0.01 0.01 0.01 0.01 0.02 0.02 0.02 0.01 0.02 0.03 0.02 0.02 0.02 0.02 0.01 0.01 0.01 0.01 0.03 0.03
0.00 0.00 0.01 0.01 0.00 0.00 0.00 0.01 0.01 0.01 0.03 0.02 0.02 0.02 0.02 0.01 0.01 0.02 0.02 0.02 0.02 0.02 0.02 0.02 0.02 0.01 0.01 0.01 0.01 0.02 0.02 0.01 0.01 0.01 0.01 0.03 0.02 0.02 0.03 0.02 0.02 0.02 0.02 0.01 0.01 0.01 0.01 0.02 0.02
0.00 0.00 0.01 0.01 0.01 0.01 0.00 0.01 0.01 0.01 0.03 0.03 0.02 0.02 0.02 0.02 0.02 0.02 0.02 0.02 0.02 0.03 0.03 0.02 0.02 0.02 0.02 0.02 0.02 0.02 0.02 0.02 0.02 0.01 0.01 0.02 0.02 0.01 0.02 0.02 0.01 0.02 0.02 0.02 0.02 0.01 0.01 0.01 0.01
0.00 0.00 0.00 0.00 0.01 0.01 0.01 0.01 0.01 0.01 0.01 0.01 0.01 0.01 0.02 0.02 0.02 0.02 0.02 0.02 0.02 0.03 0.02 0.02 0.02 0.02 0.02 0.02 0.02 0.02 0.02 0.02 0.02 0.02 0.01 0.01 0.01 0.01 0.01 0.01 0.01 0.01 0.02 0.02 0.02 0.01 0.01 0.01 0.01
0.00 0.00 0.00 0.00 0.00 0.00 0.00 0.01 0.01 0.01 0.01 0.01 0.01 0.01 0.01 0.01 0.02 0.02 0.02 0.02 0.02 0.02 0.02 0.02 0.02 0.02 0.02 0.02 0.02 0.02 0.02 0.01 0.02 0.02 0.01 0.01 0.01 0.01 0.01 0.01 0.01 0.01 0.01 0.02 0.01 0.01 0.01 0.01 0.01
MSLP
1008.05 1009.15 1010.52 1012.00 1013.41 1014.60 1015.45 1015.94 1016.10 1016.00 1015.79 1015.57 1015.45 1015.44 1015.54 1015.66 1015.72 1015.62 1015.30 1014.75 1014.02 1013.18 1012.32 1011.55 1010.93 1010.49 1010.22 1010.07 1010.00 1009.95 1009.88 1009.78 1009.67 1009.57 1009.54 1009.58 1009.72 1009.94 1010.21 1010.52 1010.81 1011.08 1011.32 1011.52 1011.71 1011.90 1012.11 1012.33 1012.55
1008.75 1010.07 1011.58 1013.11 1014.46 1015.51 1016.15 1016.38 1016.27 1015.92 1015.51 1015.15 1014.93 1014.89 1014.99 1015.14 1015.25 1015.21 1014.97 1014.51 1013.86 1013.10 1012.33 1011.62 1011.06 1010.65 1010.39 1010.25 1010.16 1010.10 1010.02 1009.93 1009.85 1009.80 1009.81 1009.89 1010.06 1010.30 1010.58 1010.87 1011.16 1011.42 1011.65 1011.86 1012.06 1012.28 1012.50 1012.73 1012.98
1009.68 1011.14 1012.70 1014.19 1015.41 1016.25 1016.64 1016.61 1016.26 1015.72 1015.16 1014.71 1014.44 1014.39 1014.49 1014.67 1014.81 1014.81 1014.62 1014.23 1013.66 1013.00 1012.33 1011.72 1011.22 1010.87 1010.64 1010.50 1010.41 1010.33 1010.25 1010.17 1010.10 1010.07 1010.11 1010.23 1010.41 1010.66 1010.93 1011.21 1011.47 1011.72 1011.95 1012.17 1012.40 1012.65 1012.91 1013.17 1013.44
1010.74 1012.26 1013.79 1015.15 1016.18 1016.78 1016.92 1016.67 1016.13 1015.46 1014.82 1014.34 1014.08 1014.03 1014.15 1014.34 1014.49 1014.52 1014.36 1014.02 1013.53 1012.97 1012.41 1011.90 1011.50 1011.21 1011.01 1010.87 1010.77 1010.67 1010.57 1010.47 1010.41 1010.40 1010.46 1010.59 1010.79 1011.03 1011.29 1011.55 1011.80 1012.03 1012.26 1012.50 1012.76 1013.05 1013.35 1013.65 1013.95
1011.82 1013.32 1014.74 1015.91 1016.71 1017.07 1017.00 1016.58 1015.93 1015.22 1014.58 1014.13 1013.92 1013.91 1014.05 1014.24 1014.39 1014.40 1014.26 1013.97 1013.56 1013.09 1012.64 1012.25 1011.93 1011.71 1011.54 1011.40 1011.26 1011.12 1010.99 1010.87 1010.79 1010.79 1010.86 1011.01 1011.21 1011.45 1011.70 1011.94 1012.17 1012.39 1012.62 1012.88 1013.17 1013.49 1013.83 1014.17 1014.49
1012.78 1014.19 1015.44 1016.40 1016.96 1017.11 1016.88 1016.37 1015.70 1015.03 1014.48 1014.13 1013.99 1014.04 1014.21 1014.39 1014.51 1014.51 1014.37 1014.10 1013.76 1013.40 1013.06 1012.77 1012.55 1012.38 1012.22 1012.07 1011.89 1011.70 1011.51 1011.36 1011.26 1011.25 1011.33 1011.49 1011.71 1011.94 1012.18 1012.41 1012.61 1012.82 1013.05 1013.31 1013.62 1013.97 1014.34 1014.71 1015.05
1013.53 1014.79 1015.84 1016.57 1016.93 1016.92 1016.60 1016.08 1015.48 1014.92 1014.52 1014.30 1014.28 1014.39 1014.57 1014.74 1014.83 1014.79 1014.64 1014.40 1014.12 1013.85 1013.62 1013.44 1013.30 1013.17 1013.03 1012.85 1012.63 1012.38 1012.14 1011.94 1011.83 1011.82 1011.91 1012.08 1012.30 1012.54 1012.77 1012.97 1013.16 1013.35 1013.56 1013.82 1014.14 1014.49 1014.88 1015.26 1015.60
1014.01 1015.10 1015.94 1016.47 1016.67 1016.56 1016.21 1015.75 1015.27 1014.89 1014.66 1014.60 1014.69 1014.87 1015.05 1015.19 1015.22 1015.15 1014.98 1014.77 1014.55 1014.37 1014.24 1014.16 1014.10 1014.02 1013.89 1013.70 1013.43 1013.14 1012.85 1012.63 1012.50 1012.49 1012.60 1012.79 1013.02 1013.26 1013.47 1013.65 1013.81 1013.97 1014.16 1014.40 1014.71 1015.06 1015.45 1015.82 1016.15
1014.27 1015.17 1015.82 1016.18 1016.25 1016.09 1015.78 1015.42 1015.11 1014.91 1014.86 1014.95 1015.13 1015.35 1015.52 1015.61 1015.59 1015.47 1015.29 1015.10 1014.94 1014.85 1014.82 1014.84 1014.86 1014.83 1014.72 1014.52 1014.25 1013.93 1013.62 1013.39 1013.27 1013.28 1013.40 1013.60 1013.84 1014.08 1014.28 1014.44 1014.56 1014.69 1014.84 1015.05 1015.33 1015.67 1016.04 1016.40 1016.72
1014.37 1015.10 1015.58 1015.80 1015.80 1015.63 1015.38 1015.14 1014.99 1014.97 1015.07 1015.28 1015.52 1015.74 1015.89 1015.92 1015.84 1015.68 1015.48 1015.32 1015.22 1015.21 1015.27 1015.38 1015.48 1015.51 1015.44 1015.27 1015.00 1014.70 1014.41 1014.20 1014.10 1014.13 1014.28 1014.50 1014.75 1014.98 1015.16 1015.29 1015.37 1015.46 1015.57 1015.75 1016.00 1016.31 1016.66 1017.00 1017.29
1014.41 1015.00 1015.33 1015.45 1015.40 1015.25 1015.07 1014.95 1014.94 1015.05 1015.27 1015.54 1015.81 1016.01 1016.10 1016.07 1015.93 1015.74 1015.54 1015.40 1015.35 1015.41 1015.56 1015.75 1015.92 1016.02 1016.01 1015.88 1015.66 1015.40 1015.16 1015.00 1014.95 1015.02 1015.19 1015.43 1015.68 1015.90 1016.06 1016.15 1016.21 1016.25 1016.33 1016.47 1016.69 1016.97 1017.29 1017.61 1017.88
1014.48 1014.94 1015.17 1015.21 1015.13 1015.00 1014.89 1014.87 1014.95 1015.15 1015.43 1015.72 1015.98 1016.14 1016.18 1016.09 1015.91 1015.69 1015.50 1015.38 1015.38 1015.50 1015.71 1015.96 1016.20 1016.36 1016.41 1016.34 1016.20 1016.01 1015.84 1015.74 1015.75 1015.86 1016.06 1016.31 1016.56 1016.76 1016.90 1016.97 1017.00 1017.02 1017.07 1017.19 1017.38 1017.63 1017.92 1018.21 1018.45
1014.62 1014.97 1015.12 1015.11 1015.02 1014.91 1014.85 1014.89 1015.04 1015.28 1015.57 1015.85 1016.07 1016.19 1016.18 1016.05 1015.85 1015.63 1015.45 1015.36 1015.39 1015.54 1015.79 1016.08 1016.35 1016.56 1016.66 1016.67 1016.60 1016.50 1016.41 1016.39 1016.45 1016.60 1016.82 1017.07 1017.31 1017.49 1017.61 1017.67 1017.69 1017.70 1017.74 1017.85 1018.01 1018.25 1018.51 1018.76 1018.97
1014.82 1015.09 1015.17 1015.13 1015.03 1014.95 1014.93 1015.00 1015.17 1015.42 1015.69 1015.95 1016.13 1016.21 1016.17 1016.04 1015.84 1015.64 1015.49 1015.42 1015.47 1015.64 1015.89 1016.17 1016.45 1016.68 1016.83 1016.89 1016.90 1016.87 1016.86 1016.90 1017.01 1017.19 1017.41 1017.64 1017.86 1018.03 1018.14 1018.20 1018.22 1018.25 1018.30 1018.40 1018.57 1018.77 1019.00 1019.22 1019.39
1015.03 1015.23 1015.26 1015.21 1015.12 1015.06 1015.06 1015.16 1015.33 1015.57 1015.81 1016.03 1016.19 1016.25 1016.21 1016.10 1015.94 1015.78 1015.67 1015.63 1015.69 1015.84 1016.06 1016.32 1016.57 1016.79 1016.95 1017.06 1017.12 1017.16 1017.21 1017.29 1017.42 1017.60 1017.80 1018.01 1018.20 1018.35 1018.46 1018.53 1018.58 1018.64 1018.72 1018.84 1019.00 1019.19 1019.39 1019.56 1019.69
1015.19 1015.32 1015.33 1015.27 1015.21 1015.18 1015.21 1015.33 1015.50 1015.71 1015.92 1016.11 1016.25 1016.31 1016.30 1016.24 1016.14 1016.05 1015.98 1015.97 1016.02 1016.14 1016.32 1016.52 1016.73 1016.92 1017.08 1017.21 1017.30 1017.39 1017.47 1017.58 1017.71 1017.86 1018.03 1018.19 1018.35 1018.48 1018.59 1018.68 1018.77 1018.87 1018.99 1019.14 1019.31 1019.49 1019.65 1019.79 1019.87
1015.22 1015.31 1015.31 1015.28 1015.26 1015.29 1015.36 1015.49 1015.65 1015.84 1016.02 1016.17 1016.29 1016.36 1016.39 1016.39 1016.37 1016.34 1016.34 1016.36 1016.41 1016.50 1016.62 1016.76 1016.92 1017.07 1017.22 1017.35 1017.48 1017.59 1017.69 1017.80 1017.91 1018.02 1018.13 1018.24 1018.35 1018.46 1018.58 1018.69 1018.83 1018.98 1019.15 1019.33 1019.51 1019.68 1019.82 1019.91 1019.95
1015.12 1015.18 1015.21 1015.24 1015.29 1015.38 1015.51 1015.66 1015.81 1015.96 1016.09 1016.20 1016.28 1016.35 1016.41 1016.46 1016.51 1016.56 1016.61 1016.67 1016.72 1016.79 1016.87 1016.97 1017.08 1017.21 1017.35 1017.50 1017.64 1017.77 1017.89 1017.99 1018.07 1018.13 1018.18 1018.23 1018.29 1018.38 1018.49 1018.63 1018.81 1019.01 1019.22 1019.43 1019.63 1019.79 1019.91 1019.97 1019.97
1014.91 1014.98 1015.06 1015.18 1015.34 1015.52 1015.71 1015.88 1016.01 1016.10 1016.16 1016.18 1016.21 1016.24 1016.30 1016.38 1016.48 1016.58 1016.69 1016.78 1016.85 1016.92 1016.98 1017.06 1017.16 1017.28 1017.44 1017.61 1017.79 1017.95 1018.09 1018.18 1018.22 1018.24 1018.23 1018.22 1018.23 1018.29 1018.39 1018.55 1018.75 1018.99 1019.24 1019.48 1019.69 1019.85 1019.96 1020.00 1019.99
1014.64 1014.77 1014.95 1015.20 1015.48 1015.77 1016.03 1016.21 1016.31 1016.31 1016.25 1016.16 1016.07 1016.02 1016.03 1016.09 1016.21 1016.35 1016.49 1016.62 1016.73 1016.81 1016.88 1016.97 1017.09 1017.24 1017.44 1017.66 1017.89 1018.09 1018.25 1018.35 1018.38 1018.36 1018.30 1018.24 1018.21 1018.23 1018.32 1018.48 1018.70 1018.96 1019.23 1019.48 1019.69 1019.85 1019.96 1020.01 1020.00
1014.41 1014.64 1014.96 1015.37 1015.80 1016.21 1016.53 1016.72 1016.75 1016.64 1016.42 1016.16 1015.92 1015.73 1015.64 1015.64 1015.73 1015.88 1016.05 1016.21 1016.35 1016.46 1016.57 1016.69 1016.85 1017.06 1017.32 1017.61 1017.90 1018.16 1018.36 1018.48 1018.51 1018.47 1018.38 1018.28 1018.21 1018.20 1018.27 1018.42 1018.64 1018.90 1019.17 1019.42 1019.63 1019.79 1019.90 1019.96 1019.98
1014.30 1014.66 1015.15 1015.74 1016.34 1016.87 1017.25 1017.42 1017.37 1017.13 1016.73 1016.28 1015.84 1015.48 1015.25 1015.15 1015.18 1015.30 1015.47 1015.65 1015.81 1015.96 1016.11 1016.28 1016.49 1016.75 1017.07 1017.43 1017.78 1018.11 1018.36 1018.51 1018.55 1018.51 1018.41 1018.29 1018.19 1018.16 1018.21 1018.34 1018.54 1018.79 1019.04 1019.27 1019.47 1019.62 1019.73 1019.81 1019.88
1014.35 1014.86 1015.54 1016.32 1017.08 1017.72 1018.15 1018.31 1018.18 1017.78 1017.21 1016.55 1015.91 1015.37 1014.98 1014.76 1014.71 1014.78 1014.93 1015.11 1015.29 1015.46 1015.63 1015.83 1016.07 1016.37 1016.73 1017.13 1017.53 1017.90 1018.19 1018.37 1018.44 1018.41 1018.31 1018.19 1018.08 1018.04 1018.06 1018.18 1018.36 1018.57 1018.80 1019.01 1019.18 1019.32 1019.43 1019.52 1019.62
1014.54 1015.22 1016.09 1017.03 1017.94 1018.68 1019.16 1019.30 1019.09 1018.58 1017.85 1017.02 1016.20 1015.50 1014.96 1014.63 1014.49 1014.51 1014.61 1014.77 1014.94 1015.10 1015.27 1015.45 1015.69 1015.99 1016.35 1016.75 1017.16 1017.54 1017.85 1018.05 1018.13 1018.12 1018.04 1017.92 1017.82 1017.77 1017.79 1017.89 1018.04 1018.23 1018.42 1018.59 1018.74 1018.86 1018.96 1019.06 1019.18
1014.85 1015.68 1016.69 1017.78 1018.80 1019.62 1020.14 1020.27 1020.02 1019.43 1018.60 1017.66 1016.72 1015.91 1015.27 1014.86 1014.65 1014.60 1014.66 1014.77 1014.89 1015.01 1015.13 1015.26 1015.44 1015.68 1015.98 1016.33 1016.70 1017.05 1017.33 1017.53 1017.62 1017.62 1017.55 1017.46 1017.37 1017.33 1017.35 1017.44 1017.57 1017.74 1017.90 1018.05 1018.16 1018.25 1018.34 1018.43 1018.56
1015.21 1016.14 1017.26 1018.44 1019.53 1020.41 1020.95 1021.10 1020.85 1020.23 1019.38 1018.40 1017.43 1016.57 1015.90 1015.44 1015.19 1015.09 1015.10 1015.15 1015.21 1015.25 1015.27 1015.31 1015.38 1015.50 1015.69 1015.93 1016.21 1016.48 1016.71 1016.87 1016.95 1016.95 1016.89 1016.81 1016.75 1016.72 1016.75 1016.83 1016.97 1017.12 1017.26 1017.39 1017.48 1017.55 1017.61 1017.69 1017.81
1015.55 1016.53 1017.69 1018.90 1020.02 1020.92 1021.48 1021.66 1021.44 1020.87 1020.06 1019.14 1018.22 1017.40 1016.76 1016.31 1016.05 1015.93 1015.89 1015.88 1015.85 1015.78 1015.69 1015.59 1015.52 1015.49 1015.53 1015.63 1015.77 1015.93 1016.07 1016.17 1016.20 1016.18 1016.12 1016.05 1015.99 1015.98 1016.02 1016.12 1016.25 1016.40 1016.54 1016.66 1016.74 1016.80 1016.85 1016.91 1017.01
1015.81 1016.79 1017.92 1019.10 1020.20 1021.08 1021.66 1021.87 1021.72 1021.25 1020.57 1019.77 1018.97 1018.27 1017.72 1017.33 1017.09 1016.97 1016.89 1016.81 1016.69 1016.53 1016.31 1016.07 1015.84 1015.66 1015.53 1015.47 1015.47 1015.49 1015.52 1015.52 1015.49 1015.42 1015.34 1015.25 1015.20 1015.19 1015.23 1015.33 1015.47 1015.62 1015.77 1015.90 1015.99 1016.05 1016.09 1016.14 1016.21
1015.98 1016.89 1017.95 1019.04 1020.06 1020.90 1021.47 1021.73 1021.67 1021.34 1020.82 1020.20 1019.59 1019.04 1018.62 1018.32 1018.13 1018.02 1017.91 1017.78 1017.59 1017.33 1017.01 1016.65 1016.29 1015.97 1015.70 1015.50 1015.35 1015.24 1015.14 1015.04 1014.93 1014.79 1014.65 1014.53 1014.44 1014.40 1014.43 1014.51 1014.65 1014.80 1014.96 1015.10 1015.21 1015.29 1015.34 1015.39 1015.45
1016.07 1016.88 1017.81 1018.77 1019.68 1020.45 1021.00 1021.29 1021.34 1021.16 1020.83 1020.41 1020.00 1019.63 1019.34 1019.15 1019.01 1018.92 1018.80 1018.63 1018.39 1018.07 1017.67 1017.24 1016.80 1016.39 1016.02 1015.70 1015.44 1015.21 1015.00 1014.80 1014.58 1014.35 1014.13 1013.93 1013.77 1013.68 1013.65 1013.69 1013.79 1013.93 1014.09 1014.24 1014.37 1014.47 1014.55 1014.62 1014.69
Thickness
5778 5776 5773 5760 5734 5711 5709 5718 5725 5727 5729 5736 5738 5734 5727 5723 5720 5718 5738 5747 5748 5749 5750 5751 5753 5753 5754 5755 5756 5757 5758 5759 5759 5760 5760 5761 5761 5762 5763 5764 5765 5765 5765 5766 5766 5767 5767 5767 5767
5777 5774 5763 5743 5715 5698 5706 5721 5724 5730 5734 5738 5737 5733 5728 5726 5733 5733 5739 5744 5747 5747 5747 5749 5750 5751 5751 5752 5753 5754 5755 5756 5756 5757 5757 5758 5758 5759 5760 5761 5761 5762 5762 5763 5763 5763 5763 5764 5764
5775 5770 5748 5727 5711 5703 5711 5725 5728 5735 5739 5738 5732 5731 5728 5726 5733 5735 5741 5744 5744 5744 5744 5745 5747 5747 5748 5749 5750 5751 5752 5753 5753 5754 5754 5755 5755 5756 5756 5757 5757 5758 5759 5759 5759 5759 5760 5760 5760
5768 5754 5739 5720 5713 5718 5723 5729 5733 5733 5736 5737 5732 5724 5728 5735 5737 5739 5742 5742 5741 5741 5741 5742 5743 5744 5745 5745 5747 5748 5749 5750 5750 5750 5751 5751 5752 5752 5753 5753 5754 5754 5755 5755 5756 5756 5756 5756 5757
5761 5740 5722 5710 5716 5725 5731 5735 5736 5732 5731 5732 5729 5721 5723 5735 5740 5740 5740 5739 5738 5737 5738 5739 5740 5740 5741 5742 5743 5745 5745 5746 5746 5747 5747 5748 5748 5749 5749 5749 5750 5750 5751 5751 5752 5752 5752 5752 5752
5743 5730 5708 5703 5714 5726 5733 5739 5736 5731 5729 5730 5727 5720 5722 5733 5736 5737 5737 5736 5736 5735 5735 5735 5736 5737 5737 5738 5739 5741 5741 5741 5742 5742 5743 5743 5744 5744 5745 5745 5746 5746 5747 5747 5747 5747 5748 5748 5748
5735 5720 5709 5710 5712 5721 5732 5739 5733 5729 5727 5729 5730 5719 5721 5729 5734 5735 5735 5734 5733 5733 5733 5733 5733 5733 5733 5734 5735 5736 5736 5737 5737 5738 5738 5739 5739 5740 5741 5741 5742 5742 5742 5743 5743 5743 5743 5743 5744
5742 5723 5712 5710 5713 5719 5735 5739 5738 5733 5729 5736 5733 5719 5718 5729 5733 5732 5731 5730 5729 5729 5729 5729 5729 5729 5730 5730 5731 5732 5732 5733 5733 5733 5733 5734 5734 5735 5736 5737 5737 5738 5738 5738 5739 5738 5739 5739 5739
5745 5716 5706 5714 5716 5723 5736 5735 5737 5741 5734 5733 5733 5730 5732 5734 5731 5727 5725 5724 5725 5726 5726 5726 5726 5726 5727 5727 5727 5728 5728 5728 5728 5728 5729 5729 5730 5730 5731 5732 5733 5734 5734 5734 5734 5734 5734 5734 5734
5733 5711 5718 5728 5730 5731 5734 5734 5734 5732 5726 5725 5727 5730 5732 5730 5726 5723 5720 5719 5720 5721 5723 5724 5724 5724 5724 5724 5724 5724 5724 5724 5724 5724 5724 5725 5725 5726 5727 5728 5728 5729 5729 5729 5729 5728 5728 5728 5728
5733 5722 5730 5735 5738 5737 5734 5733 5735 5727 5720 5724 5725 5725 5727 5725 5723 5721 5720 5720 5720 5720 5721 5722 5722 5721 5721 5721 5721 5720 5720 5719 5720 5720 5720 5721 5721 5722 5722 5723 5723 5723 5724 5724 5723 5723 5723 5723 5723
5732 5733 5736 5737 5741 5737 5733 5733 5730 5728 5729 5736 5735 5731 5727 5722 5720 5719 5718 5719 5719 5719 5720 5721 5721 5720 5719 5719 5718 5717 5716 5716 5716 5716 5717 5717 5717 5717 5717 5717 5718 5718 5718 5718 5717 5717 5717 5717 5717
5731 5732 5737 5739 5738 5736 5734 5730 5728 5728 5736 5737 5733 5728 5725 5722 5721 5721 5721 5719 5718 5718 5719 5720 5720 5719 5718 5716 5715 5714 5714 5713 5713 5713 5713 5713 5713 5713 5713 5713 5713 5713 5713 5713 5712 5712 5712 5711 5711
5733 5732 5732 5735 5735 5735 5729 5727 5726 5727 5733 5731 5727 5724 5723 5722 5720 5719 5718 5717 5717 5717 5718 5718 5718 5717 5716 5714 5713 5712 5711 5711 5711 5710 5710 5710 5710 5709 5709 5709 5709 5709 5709 5708 5708 5707 5707 5706 5706
5734 5725 5724 5728 5730 5730 5727 5716 5720 5729 5729 5725 5723 5722 5721 5721 5720 5719 5719 5718 5718 5717 5717 5717 5716 5715 5714 5712 5711 5710 5709 5708 5708 5707 5707 5707 5706 5706 5706 5705 5704 5704 5704 5704 5703 5702 5701 5701 5700
5724 5712 5704 5718 5725 5727 5718 5702 5720 5727 5724 5720 5719 5719 5719 5719 5720 5720 5721 5720 5719 5717 5715 5715 5716 5713 5712 5710 5709 5708 5707 5706 5705 5704 5704 5703 5703 5703 5702 5701 5701 5701 5700 5699 5698 5697 5695 5694 5693
5703 5694 5697 5708 5720 5720 5713 5704 5719 5723 5721 5717 5717 5717 5717 5717 5719 5720 5721 5720 5719 5717 5715 5714 5713 5711 5709 5708 5706 5705 5704 5703 5702 5702 5701 5701 5700 5700 5699 5698 5698 5697 5696 5695 5694 5692 5691 5689 5688
5692 5694 5696 5700 5712 5712 5706 5706 5715 5718 5718 5716 5715 5715 5715 5715 5719 5721 5721 5720 5719 5717 5714 5712 5711 5709 5707 5705 5703 5702 5701 5700 5699 5699 5698 5698 5697 5697 5696 5695 5694 5694 5692 5691 5689 5688 5686 5685 5684
5703 5697 5694 5701 5713 5707 5702 5703 5709 5714 5713 5713 5712 5712 5713 5715 5720 5721 5720 5719 5717 5715 5712 5710 5709 5707 5705 5702 5700 5697 5696 5696 5696 5696 5696 5695 5695 5694 5693 5692 5691 5690 5689 5687 5685 5684 5681 5679 5679
5701 5694 5693 5701 5711 5706 5699 5699 5708 5711 5711 5713 5712 5712 5714 5715 5716 5717 5717 5716 5715 5714 5712 5710 5708 5706 5704 5702 5700 5697 5695 5694 5693 5693 5693 5692 5692 5691 5691 5689 5688 5687 5685 5683 5682 5680 5677 5675 5675
5699 5694 5694 5696 5702 5703 5698 5692 5699 5707 5710 5712 5713 5714 5715 5716 5715 5715 5715 5714 5713 5712 5711 5711 5708 5705 5703 5701 5698 5694 5691 5691 5689 5689 5689 5690 5690 5689 5688 5687 5686 5684 5683 5681 5679 5678 5675 5672 5671
5692 5705 5703 5699 5689 5679 5688 5671 5689 5697 5701 5705 5708 5710 5711 5714 5716 5715 5714 5713 5712 5713 5712 5710 5707 5705 5702 5700 5696 5693 5689 5687 5687 5687 5687 5687 5687 5686 5686 5684 5683 5682 5680 5678 5677 5675 5673 5671 5668
5701 5707 5701 5695 5686 5676 5678 5670 5676 5691 5693 5699 5703 5707 5710 5712 5713 5713 5713 5713 5712 5711 5709 5708 5705 5703 5701 5698 5696 5692 5689 5687 5686 5685 5684 5684 5684 5684 5683 5682 5680 5679 5677 5676 5675 5673 5671 5669 5667
5706 5698 5689 5679 5673 5662 5671 5666 5668 5681 5689 5696 5702 5705 5708 5709 5710 5710 5711 5711 5709 5708 5707 5705 5702 5700 5698 5696 5694 5691 5688 5686 5683 5682 5681 5681 5680 5680 5680 5679 5678 5676 5675 5673 5672 5670 5669 5667 5665
5697 5678 5660 5657 5650 5655 5670 5666 5670 5688 5694 5696 5699 5702 5704 5705 5705 5705 5705 5705 5704 5703 5702 5701 5699 5697 5695 5693 5691 5690 5687 5684 5682 5681 5679 5678 5676 5676 5677 5676 5675 5674 5673 5671 5670 5667 5666 5664 5663
5688 5679 5657 5648 5645 5651 5664 5662 5676 5691 5695 5697 5698 5699 5700 5700 5700 5701 5701 5700 5700 5700 5698 5697 5696 5694 5692 5690 5688 5686 5684 5682 5680 5679 5678 5676 5675 5675 5675 5674 5673 5672 5670 5669 5667 5665 5663 5662 5660
5682 5673 5674 5656 5652 5647 5653 5664 5678 5689 5690 5691 5692 5692 5692 5693 5695 5695 5696 5696 5696 5696 5695 5693 5692 5690 5689 5687 5686 5683 5681 5679 5678 5676 5675 5674 5673 5673 5672 5671 5670 5669 5667 5666 5664 5662 5660 5659 5658
5688 5674 5659 5651 5642 5638 5648 5655 5662 5674 5678 5681 5682 5683 5684 5687 5688 5689 5690 5690 5691 5691 5691 5689 5688 5686 5685 5683 5682 5681 5678 5676 5675 5673 5672 5671 5670 5670 5669 5667 5666 5665 5664 5663 5661 5659 5658 5656 5655
5675 5669 5658 5647 5645 5635 5634 5648 5673 5674 5676 5675 5677 5679 5679 5681 5682 5683 5684 5685 5685 5685 5685 5684 5682 5681 5679 5678 5677 5676 5673 5672 5671 5669 5668 5667 5667 5666 5665 5664 5662 5661 5660 5659 5657 5656 5654 5652 5651
5678 5669 5657 5647 5641 5637 5632 5645 5675 5674 5674 5673 5673 5674 5675 5676 5677 5677 5677 5678 5678 5678 5678 5678 5676 5675 5674 5672 5671 5670 5668 5667 5665 5664 5664 5663 5662 5662 5661 5660 5659 5657 5656 5655 5654 5652 5650 5648 5646